Content
SEND FEEDBACK

Daily
Averages
Monthly
Summary
United States of America

CRESTED BUTTE, COLORADO


Home > North America > United States > Colorado
Elevation: 9277 feet     Latitude: 38 52N     Longitude: 106 58W

WEATHER
 
SELECT A DAY
Number of Records: 447,945;   Date Range: 1/1/95 - 8/28/14
 
SHARE

PRINT THIS DATA

[ ← Previous Day ]
WEATHER ALMANAC - APRIL 1, 2014
[ Next Day → ]
[ °C ]   °F
Weather ElementAverageHighLow
Temperature39.2 °F48.2 °F (2:55 pm)32 °F (4:35 am)
Dewpoint17.1 °F24.8 °F (7:55 am)10.4 °F (1:35 pm)
Humidity43.6 %70 % (7:55 am)22 % (2:55 pm)
Barometer29.82 in29.93 in (12:35 am)29.74 in (4:55 pm)
Wind Speed5.9 mph20.7 mph (2:35 pm)
Wind Gust26.5 mph (2:35 pm)
Weather ElementAverage
Visibility10 mi
Wind DirectionESE (123.4 °)

Weather ElementTotal
Precipitation---
Heating Degree Days24.9 (Base 65)
Averaged from 71 records on April 1, 2014
WEATHER CONDITIONS BREAKOUT
WIND DIRECTION BREAKOUT
WEATHER BY HOUR - APRIL 1, 2014
[ °C ]   °F
Local TimeTemperatureDewpointHumidityBarometerVisibilityWind DirectionWind SpeedGust SpeedPrecipitationEventsConditions
12:35 AM35.6 °F14.0 °F41 %29.93 in10.0 miNorth (360°)6.9 mphPartly Cloudy
12:55 AM35.6 °F12.2 °F38 %29.92 in10.0 miNNE (20°)6.9 mphClear
1:15 AM33.8 °F15.8 °F48 %29.92 in10.0 miNorth (360°)5.8 mphScattered Clouds
1:35 AM33.8 °F15.8 °F48 %29.91 in10.0 miNorth (360°)6.9 mphMostly Cloudy
1:55 AM33.8 °F15.8 °F48 %29.91 in10.0 miNorth (10°)8.1 mphMostly Cloudy
2:15 AM35.6 °F15.8 °F44 %29.91 in10.0 miNNE (20°)4.6 mphMostly Cloudy
2:35 AM35.6 °F15.8 °F44 %29.90 in10.0 miENE (60°)4.6 mphMostly Cloudy
2:55 AM33.8 °F17.6 °F52 %29.89 in10.0 miSE (140°)6.9 mphMostly Cloudy
3:15 AM33.8 °F17.6 °F52 %29.89 in10.0 miWSW (240°)3.5 mphOvercast
3:35 AM33.8 °F19.4 °F56 %29.89 in10.0 miCalmOvercast
3:55 AM33.8 °F17.6 °F52 %29.89 in10.0 miWest (260°)4.6 mphOvercast
4:15 AM33.8 °F17.6 °F52 %29.88 in10.0 miCalmOvercast
4:35 AM32.0 °F19.4 °F60 %29.87 in10.0 miCalmOvercast
4:55 AM32.0 °F19.4 °F60 %29.87 in10.0 miCalmOvercast
5:15 AM33.8 °F19.4 °F56 %29.87 in10.0 miCalmOvercast
5:35 AM32.0 °F19.4 °F60 %29.87 in10.0 miCalmOvercast
5:55 AM33.8 °F19.4 °F56 %29.87 in10.0 miCalmOvercast
6:15 AM33.8 °F19.4 °F56 %29.86 in10.0 miNE (40°)5.8 mphOvercast
6:35 AM33.8 °F19.4 °F56 %29.86 in10.0 miENE (70°)6.9 mphOvercast
6:55 AM33.8 °F23.0 °F65 %29.86 in10.0 miNorth (360°)3.5 mphOvercast
7:15 AM35.6 °F23.0 °F60 %29.86 in10.0 miNE (50°)5.8 mphOvercast
7:35 AM35.6 °F21.2 °F56 %29.86 in10.0 miENE (60°)13.8 mphOvercast
7:55 AM33.8 °F24.8 °F70 %29.86 in10.0 miENE (60°)12.7 mphMostly Cloudy
8:15 AM33.8 °F24.8 °F70 %29.86 in10.0 miEast (80°)5.8 mphScattered Clouds
8:35 AM35.6 °F24.8 °F65 %29.86 in10.0 miEast (80°)3.5 mphScattered Clouds
8:55 AM35.6 °F23.0 °F60 %29.86 in10.0 miNNW (330°)3.5 mphMostly Cloudy
9:15 AM35.6 °F23.0 °F60 %29.86 in10.0 miNorth (10°)3.5 mphOvercast
9:35 AM35.6 °F24.8 °F65 %29.86 in10.0 miNorth (10°)5.8 mphOvercast
9:55 AM35.6 °F24.8 °F65 %29.85 in10.0 miENE (60°)5.8 mphOvercast
10:15 AM37.4 °F19.4 °F48 %29.85 in10.0 miCalmOvercast
10:35 AM39.2 °F17.6 °F42 %29.84 in10.0 miCalmOvercast
10:55 AM39.2 °F17.6 °F42 %29.84 in10.0 miSSE (160°)5.8 mphOvercast
11:15 AM39.2 °F17.6 °F42 %29.83 in10.0 miCalmOvercast
11:35 AM41.0 °F15.8 °F36 %29.82 in10.0 miSouth (170°)9.2 mphOvercast
11:55 AM42.8 °F17.6 °F36 %29.82 in10.0 miSouth (180°)9.2 mphOvercast
12:15 PM42.8 °F12.2 °F29 %29.82 in10.0 miSSW (210°)8.1 mphMostly Cloudy
12:35 PM44.6 °F15.8 °F31 %29.81 in10.0 miSW (220°)8.1 mph17.3 mphMostly Cloudy
12:55 PM44.6 °F12.2 °F27 %29.80 in10.0 miSSW (210°)11.5 mph17.3 mphScattered Clouds
1:15 PM46.4 °F12.2 °F25 %29.79 in10.0 miWSW (240°)16.1 mph23.0 mphPartly Cloudy
1:35 PM46.4 °F10.4 °F23 %29.79 in10.0 miWest (260°)18.4 mph24.2 mphPartly Cloudy
1:55 PM46.4 °F10.4 °F23 %29.78 in10.0 miWest (260°)13.8 mph23.0 mphPartly Cloudy
2:15 PM46.4 °F10.4 °F23 %29.77 in10.0 miWest (260°)12.7 mph25.3 mphClear
2:35 PM46.4 °F10.4 °F23 %29.77 in10.0 miWest (260°)20.7 mph26.5 mphPartly Cloudy
2:55 PM48.2 °F10.4 °F22 %29.76 in10.0 miWest (260°)17.3 mph24.2 mphScattered Clouds
3:15 PM48.2 °F10.4 °F22 %29.76 in10.0 miWest (260°)13.8 mph17.3 mphScattered Clouds
3:35 PM48.2 °F10.4 °F22 %29.75 in10.0 miWSW (250°)12.7 mph20.7 mphClear
3:55 PM48.2 °F10.4 °F22 %29.75 in10.0 miWSW (240°)13.8 mph18.4 mphClear
4:15 PM48.2 °F10.4 °F22 %29.75 in10.0 miWest (270°)9.2 mphClear
4:35 PM48.2 °F10.4 °F22 %29.75 in10.0 miSW (230°)8.1 mph17.3 mphClear
4:55 PM46.4 °F10.4 °F23 %29.74 in10.0 miWSW (250°)10.4 mph17.3 mphClear
5:15 PM46.4 °F10.4 °F23 %29.75 in10.0 miSW (230°)6.9 mphClear
5:35 PM46.4 °F10.4 °F23 %29.75 in10.0 miSW (230°)3.5 mphClear
5:55 PM46.4 °F10.4 °F23 %29.74 in10.0 miCalmClear
6:15 PM46.4 °F10.4 °F23 %29.75 in10.0 miWNW (290°)3.5 mphClear
6:35 PM44.6 °F19.4 °F37 %29.75 in10.0 miENE (60°)4.6 mphClear
6:55 PM42.8 °F19.4 °F39 %29.75 in10.0 miENE (60°)5.8 mphClear
7:15 PM42.8 °F19.4 °F39 %29.75 in10.0 miNE (50°)8.1 mphClear
7:35 PM41.0 °F19.4 °F42 %29.75 in10.0 miCalmClear
7:55 PM42.8 °F17.6 °F36 %29.75 in10.0 miENE (60°)10.4 mphPartly Cloudy
8:15 PM41.0 °F19.4 °F42 %29.77 in10.0 miCalmPartly Cloudy
8:35 PM41.0 °F19.4 °F42 %29.76 in10.0 miENE (60°)9.2 mphScattered Clouds
8:55 PM41.0 °F17.6 °F39 %29.77 in10.0 miEast (80°)5.8 mphScattered Clouds
9:15 PM41.0 °F17.6 °F39 %29.78 in10.0 miEast (80°)4.6 mphPartly Cloudy
9:35 PM39.2 °F17.6 °F42 %29.78 in10.0 miCalmClear
9:55 PM37.4 °F19.4 °F48 %29.78 in10.0 miCalmClear
10:15 PM37.4 °F19.4 °F48 %29.78 in10.0 miCalmClear
10:35 PM35.6 °F21.2 °F56 %29.77 in10.0 miCalmClear
10:55 PM35.6 °F21.2 °F56 %29.77 in10.0 miCalmClear
11:15 PM35.6 °F21.2 °F56 %29.77 in10.0 miCalmClear
11:35 PM33.8 °F21.2 °F60 %29.77 in10.0 miCalmPartly Cloudy
11:55 PM32.0 °F21.2 °F64 %29.77 in10.0 miNNW (330°)3.5 mphScattered Clouds
Hourly data recorded from KGUC, located miles away from Crested Butte, Colorado







STORIES FROM OUR PARTNERS